FW1312 Weather Reports


time (UTC)temp
C
wind
direction
speed
KPH
gust
KPH
rain 1hr
cm
rain 24hr
cm
rain mn
cm
humidity
%
barometer
mb
20260506131507 23 184 0.0 4.8 0.00 0.00 0.00 87 1008.9
20260506130121 23 185 0.0 3.2 0.00 0.00 0.00 87 1008.9
20260506124526 23 185 0.0 3.2 0.00 0.00 0.00 87 1008.7
20260506123036 23 185 0.0 4.8 0.00 0.00 0.00 87 1008.6
20260506121509 23 186 0.0 3.2 0.00 0.00 0.00 87 1008.7
20260506120022 23 186 0.0 3.2 0.00 0.00 0.00 87 1008.7
20260506114546 23 186 0.0 8.0 0.00 0.00 0.00 87 1008.6
20260506113013 23 171 3.2 8.0 0.00 0.00 0.00 87 1008.4
20260506111551 23 198 1.6 6.4 0.00 0.00 0.00 87 1008.2
20260506031548 25 190 4.8 16.1 0.00 0.00 0.00 80 1006.8
20260506030044 25 169 6.4 20.9 0.00 0.00 0.00 80 1006.6
20260506024532 25 161 8.0 16.1 0.00 0.00 0.00 80 1006.3
20260506023014 25 147 4.8 19.3 0.00 0.00 0.00 79 1006.2
20260506021558 25 181 4.8 14.5 0.00 0.00 0.00 79 1006.1
20260506020059 25 156 4.8 11.3 0.00 0.00 0.00 79 1006.2
20260506014547 25 159 4.8 12.9 0.00 0.00 0.00 79 1006.0
20260506013043 26 155 3.2 17.7 0.00 0.00 0.00 78 1005.8
20260506011523 26 186 6.4 14.5 0.00 0.00 0.00 78 1005.5
20260506010024 26 140 6.4 19.3 0.00 0.00 0.00 78 1005.2
20260506004603 26 152 11.3 22.5 0.00 0.00 0.00 78 1004.8
20260506003132 26 186 11.3 30.6 0.00 0.00 0.00 78 1004.6
20260506001555 27 202 9.7 27.4 0.00 0.00 0.00 78 1004.6
20260506000027 27 150 8.0 20.9 0.00 0.00 0.00 78 1004.6
20260505234534 27 224 11.3 27.4 0.00 0.00 0.00 78 1004.4
20260505233005 28 181 9.7 24.1 0.00 0.00 0.00 79 1004.2
20260505231548 28 182 12.9 24.1 0.00 0.00 0.00 79 1004.2
20260505230037 28 210 9.7 25.7 0.00 0.00 0.00 79 1004.3
20260505224532 28 197 12.9 24.1 0.00 0.00 0.00 80 1004.3
20260505223001 28 184 9.7 29.0 0.00 0.00 0.00 80 1004.4
20260505221550 28 178 6.4 27.4 0.00 0.00 0.00 80 1004.5
20260505220017 28 213 12.9 33.8 0.00 0.00 0.00 81 1004.5
20260505214635 28 197 11.3 24.1 0.00 0.00 0.00 81 1004.7
20260505213039 28 158 12.9 25.7 0.00 0.00 0.00 82 1004.8
20260505211539 28 189 11.3 22.5 0.00 0.00 0.00 82 1005.0
20260505210034 28 248 11.3 29.0 0.00 0.00 0.00 83 1005.2
20260505204517 28 248 12.9 30.6 0.00 0.00 0.00 83 1005.7
20260505203047 28 221 12.9 30.6 0.00 0.00 0.00 84 1006.0
20260505201500 28 250 19.3 32.2 0.00 0.00 0.00 84 1006.0
20260505200019 28 223 17.7 35.4 0.00 0.00 0.00 85 1006.3
20260505194521 27 222 14.5 38.6 0.00 0.00 0.00 85 1006.5
20260505193031 27 193 22.5 40.2 0.00 0.00 0.00 85 1006.6
20260505191606 27 196 17.7 43.5 0.00 0.00 0.00 86 1006.7
20260505190106 27 188 12.9 29.0 0.00 0.00 0.00 86 1006.9
20260505184605 27 186 8.0 37.0 0.00 0.00 0.00 86 1007.0
20260505183110 26 248 9.7 33.8 0.00 0.00 0.00 86 1007.0
20260505181544 26 239 9.7 30.6 0.00 0.00 0.00 86 1007.1
20260505180001 25 218 12.9 35.4 0.00 0.00 0.00 86 1007.1
20260505174607 25 183 8.0 35.4 0.00 0.00 0.00 86 1007.2
20260505173052 25 239 12.9 29.0 0.00 0.00 0.00 86 1007.5
20260505171519 24 180 6.4 25.7 0.00 0.00 0.00 86 1007.6
20260505170104 24 226 8.0 24.1 0.00 0.00 0.00 86 1007.8
20260505164552 24 130 8.0 27.4 0.00 0.00 0.00 86 1007.7
20260505163026 23 236 11.3 32.2 0.00 0.00 0.00 86 1007.8
20260505161508 23 205 12.9 27.4 0.00 0.00 0.00 85 1007.7
20260505153036 22 208 9.7 24.1 0.00 0.00 0.00 85 1008.1
20260505151539 22 232 11.3 32.2 0.00 0.00 0.00 85 1008.0